WA2GTM Weather Reports


Display with metric or nautical units.
time (UTC)temp
F
wind
direction
speed
MPH
gust
MPH
rain 1hr
in
rain 24hr
in
rain mn
in
humidity
%
barometer
mb
20260502152057 51 298 4.0 9.0 0.00 0.00 0.00 41 1021.0
20260502151557 51 290 3.0 7.0 0.00 0.00 0.00 42 1021.0
20260502151054 51 292 2.0 7.0 0.00 0.00 0.00 45 1021.0
20260502150556 51 277 2.0 7.0 0.00 0.00 0.00 44 1021.0
20260502130558 40 360 1.0 2.0 0.00 0.00 0.00 70 1021.1
20260502130107 39 355 1.0 2.0 0.00 0.00 0.00 71 1021.1
20260502123557 36 352 1.0 3.0 0.00 0.00 0.00 78 1021.0
20260502123116 36 0 1.0 3.0 0.00 0.00 0.00 78 1021.0
20260502122555 35 352 1.0 3.0 0.00 0.00 0.00 79 1021.0
20260502122056 35 352 1.0 3.0 0.00 0.00 0.00 80 1020.9
20260502121557 34 352 1.0 2.0 0.00 0.00 0.00 80 1020.8
20260502121055 34 5 0.0 3.0 0.00 0.00 0.00 81 1020.7
20260502120558 34 9 1.0 3.0 0.00 0.00 0.00 81 1020.7
20260502120114 33 11 1.0 3.0 0.00 0.00 0.00 81 1020.7
20260502115559 33 16 1.0 3.0 0.00 0.00 0.00 82 1020.7
20260502115054 33 17 1.0 3.0 0.00 0.00 0.00 82 1020.5
20260502114608 33 23 0.0 2.0 0.00 0.00 0.00 82 1020.6
20260502114057 33 0 0.0 1.0 0.00 0.00 0.00 82 1020.6
20260502113554 33 0 0.0 1.0 0.00 0.00 0.00 81 1020.5
20260502113111 33 0 0.0 1.0 0.00 0.00 0.00 81 1020.4
20260502112557 33 0 0.0 2.0 0.00 0.00 0.00 81 1020.4
20260502112054 33 0 0.0 2.0 0.00 0.00 0.00 81 1020.4
20260502111554 33 15 1.0 2.0 0.00 0.00 0.00 81 1020.4
20260502111059 33 0 0.0 2.0 0.00 0.00 0.00 81 1020.4
20260502110555 33 0 0.0 2.0 0.00 0.00 0.00 80 1020.3
20260502110055 33 0 0.0 2.0 0.00 0.00 0.00 80 1020.2
20260502105556 33 0 0.0 2.0 0.00 0.00 0.00 80 1020.1
20260502105054 33 0 0.0 2.0 0.00 0.00 0.00 80 1020.2
20260502104558 33 17 0.0 2.0 0.00 0.00 0.00 79 1020.1
20260502104055 33 0 0.0 2.0 0.00 0.00 0.00 79 1020.2
20260502103559 34 17 0.0 2.0 0.00 0.00 0.00 79 1020.1
20260502103057 34 17 0.0 0.0 0.00 0.00 0.00 78 1020.0
20260502102557 34 0 0.0 0.0 0.00 0.00 0.00 78 1020.2
20260502102058 34 0 0.0 0.0 0.00 0.00 0.00 77 1020.0
20260502101602 34 0 0.0 0.0 0.00 0.00 0.00 77 1020.0
20260502101057 34 0 0.0 1.0 0.00 0.00 0.00 76 1019.9
20260502100558 34 0 0.0 2.0 0.00 0.00 0.00 76 1020.0
20260502091054 35 0 0.0 2.0 0.00 0.00 0.00 77 1019.9
20260502090554 35 17 0.0 2.0 0.00 0.00 0.00 77 1019.9
20260502071059 38 0 0.0 1.0 0.00 0.00 0.00 68 1019.8
20260502070557 39 17 0.0 2.0 0.00 0.00 0.00 68 1019.9
20260502070112 39 0 0.0 2.0 0.00 0.00 0.00 68 1019.9
20260502065556 39 17 1.0 2.0 0.00 0.00 0.00 68 1020.0
20260502065056 39 0 0.0 2.0 0.00 0.00 0.00 69 1020.0
20260502064557 39 0 0.0 2.0 0.00 0.00 0.00 68 1020.0
20260502064056 39 0 0.0 2.0 0.00 0.00 0.00 68 1019.9
20260502063558 39 0 0.0 3.0 0.00 0.00 0.00 68 1019.9
20260502063059 39 17 0.0 3.0 0.00 0.00 0.00 68 1020.0
20260502062557 39 17 1.0 3.0 0.00 0.00 0.00 68 1020.0
20260502062057 39 17 1.0 2.0 0.00 0.00 0.00 68 1020.0
20260502061558 39 17 0.0 2.0 0.00 0.00 0.00 68 1019.9
20260502061058 39 0 0.0 0.0 0.00 0.00 0.00 68 1019.9
20260502060556 39 0 0.0 1.0 0.00 0.00 0.00 68 1019.9
20260502060057 40 0 0.0 2.0 0.00 0.00 0.00 67 1019.9
20260502055559 40 0 0.0 2.0 0.00 0.00 0.00 68 1019.9
20260502055100 40 0 0.0 2.0 0.00 0.00 0.00 68 1019.9
20260502054558 40 0 0.0 2.0 0.00 0.00 0.00 67 1019.9
20260502054056 40 17 0.0 2.0 0.00 0.00 0.00 67 1019.9
20260502053556 40 17 0.0 2.0 0.00 0.00 0.00 67 1019.7
20260502053101 40 17 0.0 2.0 0.00 0.00 0.00 66 1019.9
20260502052556 41 17 0.0 2.0 0.00 0.00 0.00 66 1019.7
20260502052056 41 0 0.0 2.0 0.00 0.00 0.00 66 1019.8
20260502051609 41 0 0.0 2.0 0.00 0.00 0.00 65 1019.7
20260502051057 41 17 0.0 2.0 0.00 0.00 0.00 65 1019.7
20260502050556 42 0 0.0 2.0 0.00 0.00 0.00 64 1019.5
20260502050101 42 0 0.0 1.0 0.00 0.00 0.00 63 1019.5
20260502045557 42 17 0.0 2.0 0.00 0.00 0.00 63 1019.5
20260502045056 42 17 1.0 3.0 0.00 0.00 0.00 63 1019.4
20260502044630 43 17 1.0 3.0 0.00 0.00 0.00 63 1019.5
20260502044056 43 0 0.0 2.0 0.00 0.00 0.00 62 1019.4
20260502043600 43 17 0.0 2.0 0.00 0.00 0.00 62 1019.4
20260502043104 43 0 0.0 2.0 0.00 0.00 0.00 61 1019.4
20260502042556 44 0 0.0 2.0 0.00 0.00 0.00 61 1019.4
20260502042057 44 0 0.0 2.0 0.00 0.00 0.00 61 1019.5
20260502041556 44 0 0.0 2.0 0.00 0.00 0.00 61 1019.4
20260502041058 44 0 0.0 2.0 0.00 0.00 0.00 60 1019.4
20260502040557 45 0 0.0 2.0 0.00 0.00 0.00 59 1019.4
20260502040104 45 0 0.0 2.0 0.00 0.00 0.00 59 1019.3
20260502035556 45 0 0.0 2.0 0.00 0.00 0.00 58 1019.2
20260502035053 46 0 0.0 3.0 0.00 0.00 0.00 57 1019.3
20260502034556 46 0 0.0 3.0 0.00 0.00 0.00 57 1019.4
20260502034056 46 0 0.0 3.0 0.00 0.00 0.00 56 1019.4
20260502033556 46 0 0.0 2.0 0.00 0.00 0.00 56 1019.4
20260502033057 47 0 0.0 2.0 0.00 0.00 0.00 55 1019.3
20260502032555 47 17 0.0 3.0 0.00 0.00 0.00 54 1019.1
20260502032056 47 0 1.0 3.0 0.00 0.00 0.00 54 1019.1
20260502031556 48 17 0.0 3.0 0.00 0.00 0.00 53 1019.1
20260502031057 48 17 1.0 3.0 0.00 0.00 0.00 53 1019.2
20260502030600 48 16 0.0 2.0 0.00 0.00 0.00 53 1019.2
20260502025557 49 16 1.0 3.0 0.00 0.00 0.00 52 1019.3
20260502025057 49 16 1.0 3.0 0.00 0.00 0.00 52 1019.1
20260502024558 49 15 1.0 3.0 0.00 0.00 0.00 52 1019.1
20260502024056 49 15 1.0 3.0 0.00 0.00 0.00 53 1018.9
20260502023553 49 15 1.0 3.0 0.00 0.00 0.00 53 1018.9
20260502023059 49 15 0.0 2.0 0.00 0.00 0.00 53 1018.8
20260502022555 50 0 0.0 2.0 0.00 0.00 0.00 52 1018.7
20260502022127 50 15 0.0 3.0 0.00 0.00 0.00 52 1018.7
20260502021609 50 0 0.0 3.0 0.00 0.00 0.00 52 1018.6
20260502021053 50 15 0.0 2.0 0.00 0.00 0.00 52 1018.4
20260502020556 50 0 0.0 2.0 0.00 0.00 0.00 51 1018.3
20260502020058 50 0 0.0 4.0 0.00 0.00 0.00 51 1018.4
20260502015554 50 15 1.0 4.0 0.00 0.00 0.00 50 1018.3
20260502015056 50 14 1.0 3.0 0.00 0.00 0.00 50 1018.3
20260502014557 50 14 1.0 5.0 0.00 0.00 0.00 50 1018.3
20260502014056 50 13 1.0 5.0 0.00 0.00 0.00 50 1018.3
20260502013554 50 30 1.0 4.0 0.00 0.00 0.00 50 1018.2
20260502013100 50 33 1.0 3.0 0.00 0.00 0.00 50 1018.1
20260502012556 51 33 1.0 5.0 0.00 0.00 0.00 49 1018.1
20260502012056 51 32 2.0 5.0 0.00 0.00 0.00 49 1017.9
20260502011557 51 34 3.0 5.0 0.00 0.00 0.00 49 1017.9
20260502011053 51 30 2.0 5.0 0.00 0.00 0.00 49 1018.0
20260502010556 51 32 2.0 5.0 0.00 0.00 0.00 48 1017.8
20260502010058 51 26 2.0 6.0 0.00 0.00 0.00 48 1017.8
20260502005556 51 26 2.0 9.0 0.00 0.00 0.00 48 1017.8
20260502005056 52 34 1.0 9.0 0.00 0.00 0.00 48 1017.7
20260502004603 52 26 3.0 8.0 0.00 0.00 0.00 47 1017.8
20260502004056 52 28 2.0 8.0 0.00 0.00 0.00 47 1017.6
20260502003553 52 33 3.0 8.0 0.00 0.00 0.00 46 1017.6
20260502003053 52 42 3.0 8.0 0.00 0.00 0.00 46 1017.6
20260502002557 52 24 3.0 9.0 0.00 0.00 0.00 47 1017.5
20260502002053 52 39 3.0 9.0 0.00 0.00 0.00 46 1017.6
20260502001607 53 32 4.0 9.0 0.00 0.00 0.00 45 1017.4
20260502001056 53 5 4.0 12.0 0.00 0.00 0.00 45 1017.5
20260502000555 53 41 5.0 12.0 0.00 0.00 0.00 45 1017.4
20260502000114 54 40 5.0 12.0 0.00 0.00 0.00 44 1017.3
20260501235556 53 29 5.0 14.0 0.00 0.00 0.00 44 1017.4
20260501235055 53 27 7.0 16.0 0.00 0.00 0.00 45 1017.2
20260501234600 53 13 6.0 16.0 0.00 0.00 0.00 45 1017.3
20260501234055 54 24 6.0 12.0 0.00 0.00 0.00 45 1017.3
20260501233556 54 24 5.0 12.0 0.00 0.00 0.00 44 1017.3
20260501233104 54 31 3.0 11.0 0.00 0.00 0.00 45 1017.4
20260501232556 54 12 4.0 11.0 0.00 0.00 0.00 44 1017.3
20260501232100 54 36 4.0 11.0 0.00 0.00 0.00 45 1017.4
20260501231558 54 5 4.0 11.0 0.00 0.00 0.00 45 1017.4
20260501231055 54 49 4.0 9.0 0.00 0.00 0.00 44 1017.3
20260501230555 54 36 3.0 9.0 0.00 0.00 0.00 45 1017.2
20260501225555 54 74 4.0 9.0 0.00 0.00 0.00 44 1017.4
20260501225055 54 65 3.0 12.0 0.00 0.00 0.00 44 1017.5
20260501224557 54 28 4.0 12.0 0.00 0.00 0.00 44 1017.4
20260501224058 54 26 5.0 12.0 0.00 0.00 0.00 44 1017.3
20260501223555 54 51 4.0 10.0 0.00 0.00 0.00 45 1017.2
20260501223055 54 44 4.0 12.0 0.00 0.00 0.00 44 1017.3
20260501222557 54 51 6.0 12.0 0.00 0.00 0.00 44 1017.3
20260501222055 55 46 3.0 9.0 0.00 0.00 0.00 44 1017.3
20260501221609 54 40 3.0 9.0 0.00 0.00 0.00 43 1017.2
20260501221057 54 47 3.0 10.0 0.00 0.00 0.00 43 1017.3
20260501220555 54 60 4.0 10.0 0.00 0.00 0.00 43 1017.1
20260501220108 54 20 3.0 9.0 0.00 0.00 0.00 44 1017.1
20260501215555 54 0 2.0 12.0 0.00 0.00 0.00 44 1017.1
20260501215056 54 22 3.0 12.0 0.00 0.00 0.00 44 1017.1
20260501214607 54 13 4.0 14.0 0.00 0.00 0.00 43 1017.1
20260501214055 54 48 5.0 14.0 0.00 0.00 0.00 44 1017.1
20260501213556 55 25 4.0 10.0 0.00 0.00 0.00 43 1017.0
20260501213105 54 55 3.0 10.0 0.00 0.00 0.00 43 1017.1
20260501212556 55 28 6.0 10.0 0.00 0.00 0.00 42 1017.1
20260501212056 55 22 4.0 11.0 0.00 0.00 0.00 42 1017.0
20260501211612 55 30 3.0 11.0 0.00 0.00 0.00 43 1017.1
20260501211056 55 65 4.0 12.0 0.00 0.00 0.00 43 1017.1
20260501210556 55 66 5.0 12.0 0.00 0.00 0.00 43 1017.2
20260501210100 55 46 4.0 14.0 0.00 0.00 0.00 43 1017.3
20260501205554 55 39 5.0 14.0 0.00 0.00 0.00 43 1017.3
20260501205059 55 11 6.0 14.0 0.00 0.00 0.00 43 1017.3
20260501204600 55 29 4.0 10.0 0.00 0.00 0.00 42 1017.3
20260501204058 55 27 5.0 10.0 0.00 0.00 0.00 41 1017.5
20260501203555 55 51 4.0 10.0 0.00 0.00 0.00 42 1017.2
20260501203100 55 9 3.0 12.0 0.00 0.00 0.00 43 1017.3
20260501202556 55 33 5.0 16.0 0.00 0.00 0.00 42 1017.3
20260501202058 56 15 5.0 16.0 0.00 0.00 0.00 41 1017.4
20260501201600 56 14 6.0 13.0 0.00 0.00 0.00 40 1017.2
20260501201056 55 40 5.0 14.0 0.00 0.00 0.00 40 1017.3
20260501200555 55 25 5.0 14.0 0.00 0.00 0.00 41 1017.4
20260501200057 55 34 5.0 12.0 0.00 0.00 0.00 42 1017.4
20260501195556 55 24 5.0 12.0 0.00 0.00 0.00 41 1017.4
20260501195056 56 12 3.0 12.0 0.00 0.00 0.00 41 1017.5
20260501194618 56 17 4.0 12.0 0.00 0.00 0.00 43 1017.5
20260501194055 56 19 4.0 12.0 0.00 0.00 0.00 43 1017.5
20260501193555 55 360 5.0 12.0 0.00 0.00 0.00 44 1017.5
20260501193056 55 51 5.0 12.0 0.00 0.00 0.00 43 1017.4
20260501192555 55 42 6.0 12.0 0.00 0.00 0.00 42 1017.5
20260501192055 54 23 3.0 10.0 0.00 0.00 0.00 44 1017.4
20260501191558 54 5 6.0 10.0 0.00 0.00 0.00 44 1017.5
20260501191055 55 36 3.0 8.0 0.00 0.00 0.00 45 1017.5
20260501190556 54 35 3.0 13.0 0.00 0.00 0.00 42 1017.6
20260501190056 54 30 5.0 13.0 0.00 0.00 0.00 45 1017.5
20260501185554 55 338 5.0 11.0 0.00 0.00 0.00 45 1017.5
20260501185058 55 32 4.0 10.0 0.00 0.00 0.00 43 1017.3
20260501184557 55 331 3.0 15.0 0.00 0.00 0.00 44 1017.4
20260501184055 55 28 6.0 15.0 0.00 0.00 0.00 44 1017.4
20260501183558 54 15 4.0 12.0 0.00 0.00 0.00 47 1017.4
20260501183057 54 13 6.0 12.0 0.00 0.00 0.00 47 1017.4
20260501182556 54 5 4.0 9.0 0.00 0.00 0.00 46 1017.2
20260501182054 54 44 2.0 10.0 0.00 0.00 0.00 46 1017.4
20260501181618 54 37 4.0 10.0 0.00 0.00 0.00 48 1017.3
20260501181055 53 36 4.0 10.0 0.00 0.00 0.00 48 1017.4
20260501180556 53 24 3.0 11.0 0.00 0.00 0.00 49 1017.4
20260501180058 53 32 5.0 11.0 0.00 0.00 0.00 50 1017.5
20260501175555 53 34 5.0 11.0 0.00 0.00 0.00 49 1017.5
20260501175055 53 49 3.0 12.0 0.00 0.00 0.00 50 1017.5
20260501174558 53 37 4.0 12.0 0.00 0.00 0.00 51 1017.6
20260501174056 53 23 5.0 12.0 0.00 0.00 0.00 51 1017.4
20260501173555 53 360 4.0 12.0 0.00 0.00 0.00 51 1017.6
20260501173113 53 355 5.0 10.0 0.00 0.00 0.00 48 1017.5
20260501172555 54 303 3.0 9.0 0.00 0.00 0.00 52 1017.5
20260501172054 53 29 3.0 11.0 0.00 0.00 0.00 55 1017.5
20260501171555 52 319 3.0 17.0 0.00 0.00 0.00 55 1017.4
20260501171057 52 46 5.0 17.0 0.00 0.00 0.00 55 1017.5
20260501170556 52 5 3.0 10.0 0.00 0.00 0.00 55 1017.5
20260501170056 53 35 5.0 13.0 0.00 0.00 0.00 55 1017.5
20260501165555 53 22 6.0 13.0 0.00 0.00 0.00 57 1017.5
20260501165055 53 13 5.0 13.0 0.00 0.00 0.00 55 1017.5
20260501164558 53 21 5.0 13.0 0.00 0.00 0.00 57 1017.5
20260501164054 53 22 6.0 11.0 0.00 0.00 0.00 56 1017.4
20260501163557 53 20 4.0 11.0 0.00 0.00 0.00 59 1017.5
20260501163059 52 24 4.0 13.0 0.00 0.00 0.00 59 1017.5
20260501162559 52 24 4.0 15.0 0.00 0.00 0.00 58 1017.4
20260501162100 52 355 5.0 15.0 0.00 0.00 0.00 58 1017.5
20260501161559 52 59 2.0 10.0 0.00 0.00 0.00 59 1017.3
20260501161057 52 36 4.0 10.0 0.00 0.00 0.00 59 1017.4
20260501160558 53 349 4.0 11.0 0.00 0.00 0.00 57 1017.2
20260501160101 53 57 1.0 11.0 0.00 0.00 0.00 57 1017.1
20260501155555 53 26 3.0 7.0 0.00 0.00 0.00 57 1017.1
20260501155055 53 52 2.0 9.0 0.00 0.00 0.00 58 1017.1
20260501154558 52 26 4.0 10.0 0.00 0.00 0.00 59 1017.1
20260501154057 52 35 4.0 10.0 0.00 0.00 0.00 58 1017.1
20260501153555 52 5 4.0 10.0 0.00 0.00 0.00 60 1017.0
20260501153116 52 28 4.0 10.0 0.00 0.00 0.00 59 1016.9